Regional Weather Roundup
Issued by NWS Wakefield, VA

Home | Current Version | Previous Version | Graphics & Text | Print | Product List | Glossary On
Versions: 1 2 3 4 5 6 7 8 9 10 11 12 13 14 15 16 17 18 19 20 21 22 23 24 25 26 27 28 29 30 31 32 33 34 35 36 37 38 39 40 41 42 43 44 45 46 47 48 49 50
000
ASUS41 KAKQ 272215
RWRAKQ

REGIONAL WEATHER ROUNDUP
NATIONAL WEATHER SERVICE WAKEFIELD VA
600 PM EDT WED MAY 27 2015

Note: "fair" indicates few or no clouds below 12,000 feet with no
significant weather and/or obstructions to visibility. * = Denotes
station may not report precipitation (e.g., rain,snow,etc.),
thunder or fog.

VAZ042-051-052>054-056-272300-
NORTHERN VIRGINIA

CITY           SKY/WX    TMP DP  RH WIND       PRES   REMARKS
WASH NATIONAL  PTSUNNY   83  67  58 NE7       30.11F
DULLES         PTSUNNY   76  72  87 CALM      30.12S
FORT BELVOIR   MOSUNNY   83  70  64 VRB2      30.11S
QUANTICO       MOSUNNY   84  68  58 SW7       30.11S
FREDERICKSBRG* PTSUNNY   89  67  48 S7        30.09F
STAFFORD*      MOSUNNY   85  64  48 SW5       30.14F
WARRENTON      MOSUNNY   87  67  52 S9        30.11S
CULPEPER*      MOSUNNY   85  64  50 SW10      30.12R
MANASSAS*      PTSUNNY   82  68  61 NE3       30.11F
LEESBURG*      PTSUNNY   81  70  69 CALM      30.13S
WINCHESTER     PTSUNNY   82  61  47 SE5       30.12S
FRONT ROYAL*   FAIR      81  70  69 CALM      30.11S
LURAY*         FAIR      82  70  65 CALM      30.13S
$$

VAZ048-049-060>072-079>083-272300-
CENTRAL AND SOUTH CENTRAL VIRGINIA

CITY           SKY/WX    TMP DP  RH WIND       PRES   REMARKS
RICHMOND       PTSUNNY   87  66  49 S12       30.12F
CHESTERFIELD*  NOT AVBL
PETERSBURG*    MOSUNNY   87  72  60 SW9       30.14F
HANOVER        MOSUNNY   85  65  51 SW10      30.13F
TAPPAHANNOCK*  MOSUNNY   88  60  38 S8        30.12F
QUINTON*       MOCLDY    85  68  57 SW5       30.13S
CHARLOTTSVILLE MOSUNNY   85  62  46 SW12      30.12F
GORDONSVILLE*  MOCLDY    85  66  51 S9        30.11S
ORANGE*        MOSUNNY   86  64  48 S9        30.13S
LOUISA*        MOSUNNY   88  66  48 S8        30.12S
BUMPASS*       FAIR      83  67  56 SW5       30.12S
FARMVILLE*     MOSUNNY   86  65  49 S12       30.13S
CREWE*         FAIR      85  65  49 SW7       30.15S
FORT PICKETT*  FAIR      84  67  57 SW9       30.15S
CHASE CITY*    MOCLDY    86  70  58 S5        30.16F
CLARKSVILLE*   FAIR      82  68  61 SW8       30.15F
SOUTH HILL*    MOSUNNY   84  67  56 SW12      30.22S
LAWRENCEVILLE* FAIR      84  68  58 W5        30.15S
EMPORIA*       MOSUNNY   84  68  58 S3        30.15F
$$

VAZ088>098-272300-
SOUTHEAST VIRGINIA

CITY           SKY/WX    TMP DP  RH WIND       PRES   REMARKS
NORFOLK        MOSUNNY   85  67  54 S18       30.15F
VIRGINIA BEACH MOSUNNY   84  68  58 S16G23    30.16F
NORFOLK NAVAL  MOSUNNY   88  68  51 S9G21     30.16F
WEST POINT*    SUNNY     89  64  44 S9        30.14F
SALUDA*        FAIR      84  72  66 SE9       30.13S
NEWPORT NEWS   MOSUNNY   89  70  53 S16G24    30.14F
LANGLEY AFB    MOSUNNY   84  71  63 S18       30.13F
FORT EUSTIS    MOSUNNY   85  69  59 S9        30.12F
WILLIAMSBURG*  SUNNY     90  72  55 S9        30.14F HX  96
HR EXEC AP*    FAIR      84  70  61 S16       30.17F
FRANKLIN*      SUNNY     84  70  62 S16       30.15F
WAKEFIELD      MOSUNNY   86  70  58 VRB6      30.13F
$$

VAZ020-022-025-037-045-272300-
WEST CENTRAL AND SOUTHWEST VIRGINIA

CITY           SKY/WX    TMP DP  RH WIND       PRES   REMARKS
STAUNTON*      PTSUNNY   83  68  60 S6        30.16S
WAYNESBORO*    FAIR      79  65  61 S7        30.17R
HOT SPRINGS VA PTSUNNY   74  56  53 SW9       30.27F
LYNCHBURG      MOSUNNY   83  63  50 S13       30.17S
DANVILLE       SUNNY     84  66  54 S7        30.16F
SOUTH BOSTON*  FAIR      84  64  50 S9        30.15F
MARTINSVILLE   MOSUNNY   82  62  51 SW5       30.20S
ROANOKE        PTSUNNY   83  63  50 S12       30.17S
BLACKSBURG     PTSUNNY   80  56  44 CALM      30.24S
DUBLIN*        PTSUNNY   80  64  57 S9        30.22F
MARION*        PTSUNNY   78  57  48 W8        30.25F
HILLSVILLE*    MOSUNNY   73  63  71 S6        30.25F
RICHLANDS*     FAIR      78  58  51 SW5       30.23F
WISE*          SUNNY     79  54  41 S7        30.25R
ABINGDON*      MOSUNNY   82  58  43 CALM      30.20F
$$

MDZ021>025-VAZ099-100-272300-
SOUTHERN MARYLAND AND THE DELMARVA PENINSULA

CITY           SKY/WX    TMP DP  RH WIND       PRES   REMARKS
PATUXENT RIVER PTSUNNY   80  69  69 SE15      30.12S
BAY BRIDGE APT NOT AVBL
LEONARDTOWN    NOT AVBL
DOVER          MOSUNNY   84  72  66 S12       30.10S
GEORGETOWN     SUNNY     82  68  62 S14       30.15S
EASTON         MOSUNNY   86  72  62 S17G23    30.15
CAMBRIDGE      NOT AVBL
SALISBURY      SUNNY     79  67  66 S14G24    30.15S
OCEAN CITY     SUNNY     73  64  73 SW12G20   30.19S
WALLOPS ISLAND SUNNY     73  65  75 S20G29    30.19S
ACCOMACK*      SUNNY     77  68  73 S21G28    30.17S
$$

NCZ012>017-030>032-272300-
NORTH CENTRAL AND EASTERN NORTH CAROLINA

CITY           SKY/WX    TMP DP  RH WIND       PRES   REMARKS
ROANOKE RAPIDS FAIR      86  64  48 SW9       30.15S
RALEIGH        PTSUNNY   87  67  51 S8        30.16F
ELIZABETH CITY SUNNY     80  67  64 S12       30.20F
AHOSKIE*       MOSUNNY   84  69  60 S10G16    30.16F
EDENTON*         N/A     80  69  69 S15G21    30.20S
CURRITUCK*     SUNNY     81  64  55 S10       30.20S
KILL DEVIL HLS SUNNY     77  65  66 S10G21    30.21S
MANTEO         SUNNY     76  65  69 S21       30.22F
CAPE HATTERAS  SUNNY     77  62  59 S14       30.24F
TARBORO*       FAIR      80  71  74 SE3       30.18R
GOLDSBORO      PTSUNNY   82  69  65 S8G18     30.16R
WASHINGTON     MOSUNNY   81  67  63 S9G17     30.19F
GREENVILLE     MOSUNNY   82  70  65 S10       30.19S
NEW BERN       PTSUNNY   80  67  64 S9G20     30.22F
WILMINGTON     MOSUNNY   78  67  68 SE10      30.22S
$$

VAZ048-272300-
ELSEWHERE

CITY           SKY/WX    TMP DP  RH WIND       PRES   REMARKS
HARRISBURG PA  PTSUNNY   78  68  71 CALM      30.11R
BALTIMORE      PTSUNNY   76  66  71 E3        30.12S
ANNAPOLIS      MOSUNNY   79  64  60 NW5       30.11F
ANDREWS AFB    SUNNY     80  68  66 N3        30.11F
PHILADELPHIA   TSTM      77  68  73 W26G33    30.11R VSB 3/4
HENDERSON NC   MOSUNNY   83  62  49 SW7       30.17F
GREENSBORO     PTSUNNY   82  63  52 SW10      30.17F
ROCKY MOUNT    MOSUNNY   86  68  54 SE5       30.16S
$$

VAZ100-272300-
MARINE

STATION/POSITION TIME  TEMP    WIND        PRES    WAVE   SWELL
                       AIR SEA DIR/SP/G            HT/PER HT/PER
                 (UTC) (F)     (DEG/KT/KT) (MB)    (FT/S) (FT/S)
BRANDYWINE LGT   2100   68 65  180/ 26/ 28 1020.2S
CAPE MAY NJ      2100   70 72  160/ 18/ 24 1020.3F
LEWES DE         2100   80 65  180/ 11/ 20 1020.5R
15NM E FENWICK I 2050   66 63              1021.5    4/ 5
OCEAN-CITY-INLET 2100   65 58  210/ 15/ 18 1022.1S
WACHAPREAGUE VA  2100   75 78  200/ 21/ 26 1021.8F
THOMAS POINT MD  2100   75 69  180/ 17/ 20 1020.0S
GOOSES REEF MD   2100   73 69  170/ 12/ 16 1020.9S   1/ 2
COVE POINT MD    2100   73     190/ 19/ 23 1020.6F
SOLOMONS ISLAND  2100      74                N/A
BISHOPS HEAD MD  2100   77 81  160/ 18/ 22 1020.3S
PINEY POINT MD   2100          190/  7/  8   N/A
CAMBRIDGE MD     2100   85 71  190/  8/ 15 1019.9F
LEWISETTA VA     2100   85 77              1019.7F
RAPPAHANNOCK LGT 2100          150/ 20/ 22 1021.5F
STINGRAY PT      2100   74 74  170/ 17/ 21 1021.1F   2/ 3
YORK RVR RNG VA  2100   76     150/ 15/ 17 1020.1F
YORKTOWN VA      2100   85 71  180/ 11/ 16 1020.4F
JAMESTOWN VA     2100   83 77  200/ 10/ 16 1019.6F
DOMINION TERM VA 2100   81     190/ 13/ 14 1021.1F
KIPTOPEKE VA     2100      80  170/ 24/ 27   N/A
CHES BAY BRIDGE  2100   81 71  160/ 16/ 19 1021.0F
CAPE HENRY VA    2100   75     150/ 14/ 21 1020.5F
CHESAPEAKE LGHT  2100   69     170/ 29/ 31 1022.0F
WILLOUBY STN VA  2100   83     180/ 19/ 21 1021.8F
1ST LANDING BUOY 2100      72              1021.2F
OFFSHORE WE BUOY 2111      66                N/A     4/ 4   2/ 7
64NM E OF VA BCH 2050   68 64  170/ 16/ 17 1023.4    3/ 7   2/ 7
DUCK PIER NC     2100   74 58  160/ 19/ 24 1021.9F
44056 DUCK FRF   2111      64                N/A     2/ 6
OREGON INLET NC  2100   76 78  170/ 17/ 20 1024.0F
HATTERAS NC      2100   76 75  160/ 13/ 17 1024.0F
DIAMOND SHLS NC  2050   75 77  160/ 16/ 17 1024.6    3/ 7   2/ 7
CAPE LOOKOUT NC  2100   74     150/ 14/ 16 1023.8F
$$


USA.gov is the U.S. government's official web portal to all federal, state and local government web resources and services.